| time (UTC) | temp F | wind direction | speed knots | gust knots | rain 1hr in | rain 24hr in | rain mn in | humidity % | barometer mb |
| 20260504192438 | 78 | 61 | 0.0 | 0.9 | 0.00 | 0.00 | 0.00 | 30 | 1239.7 |
| 20260504191937 | 78 | 87 | 0.0 | 0.9 | 0.00 | 0.00 | 0.00 | 33 | 1239.7 |
| 20260504191435 | 79 | 129 | 1.7 | 1.7 | 0.00 | 0.00 | 0.00 | 31 | 1239.7 |
| 20260504190936 | 78 | 94 | 0.0 | 0.0 | 0.00 | 0.00 | 0.00 | 34 | 1239.7 |
| 20260504190432 | 77 | 104 | 0.0 | 0.0 | 0.00 | 0.00 | 0.00 | 36 | 1239.7 |
| 20260504185928 | 77 | 71 | 1.7 | 2.6 | 0.00 | 0.00 | 0.00 | 35 | 1239.7 |
| 20260504185426 | 77 | 197 | 0.0 | 1.7 | 0.00 | 0.00 | 0.00 | 35 | 1239.7 |
| 20260504184921 | 77 | 88 | 0.0 | 0.9 | 0.00 | 0.00 | 0.00 | 37 | 1239.7 |
| 20260504184418 | 77 | 98 | 0.0 | 0.0 | 0.00 | 0.00 | 0.00 | 35 | 1239.7 |
| 20260504183914 | 77 | 52 | 0.0 | 0.0 | 0.00 | 0.00 | 0.00 | 34 | 1239.7 |
| 20260504183411 | 77 | 59 | 0.9 | 1.7 | 0.00 | 0.00 | 0.00 | 33 | 1239.7 |
| 20260504182909 | 77 | 93 | 0.0 | 0.0 | 0.00 | 0.00 | 0.00 | 32 | 1239.7 |
| 20260504182406 | 77 | 87 | 0.0 | 0.0 | 0.00 | 0.00 | 0.00 | 33 | 1239.7 |
| 20260504181902 | 77 | 95 | 0.0 | 0.0 | 0.00 | 0.00 | 0.00 | 36 | 1239.7 |
| 20260504181400 | 77 | 118 | 0.9 | 1.7 | 0.00 | 0.00 | 0.00 | 35 | 1239.7 |
| 20260504180859 | 76 | 141 | 0.0 | 0.0 | 0.00 | 0.00 | 0.00 | 34 | 1239.7 |
| 20260504180357 | 76 | 85 | 0.9 | 0.9 | 0.00 | 0.00 | 0.00 | 37 | 1239.7 |
| 20260504175855 | 75 | 116 | 0.0 | 0.0 | 0.00 | 0.00 | 0.00 | 37 | 1239.7 |
| 20260504175351 | 75 | 153 | 1.7 | 1.7 | 0.00 | 0.00 | 0.00 | 35 | 1239.7 |
| 20260504174849 | 75 | 86 | 0.0 | 0.0 | 0.00 | 0.00 | 0.00 | 38 | 1239.7 |
| 20260504174346 | 75 | 106 | 0.0 | 0.0 | 0.00 | 0.00 | 0.00 | 37 | 1239.7 |
| 20260504173843 | 75 | 21 | 1.7 | 1.7 | 0.00 | 0.00 | 0.00 | 38 | 1239.7 |
| 20260504173340 | 76 | 198 | 1.7 | 1.7 | 0.00 | 0.00 | 0.00 | 36 | 1239.7 |
| 20260504172837 | 76 | 59 | 0.0 | 0.0 | 0.00 | 0.00 | 0.00 | 38 | 1239.7 |
| 20260504172334 | 75 | 201 | 1.7 | 1.7 | 0.00 | 0.00 | 0.00 | 37 | 1239.7 |
| 20260504171829 | 75 | 77 | 0.0 | 0.0 | 0.00 | 0.00 | 0.00 | 40 | 1239.7 |
| 20260504171327 | 76 | 92 | 0.0 | 0.0 | 0.00 | 0.00 | 0.00 | 37 | 1239.7 |
| 20260504170824 | 76 | 139 | 0.9 | 0.9 | 0.00 | 0.00 | 0.00 | 38 | 1239.7 |
| 20260504170321 | 75 | 102 | 0.0 | 0.9 | 0.00 | 0.00 | 0.00 | 39 | 1239.7 |
| 20260504160239 | 72 | 67 | 0.0 | 0.0 | 0.00 | 0.00 | 0.00 | 41 | 1239.7 |
| 20260504150704 | 66 | 131 | 0.9 | 1.7 | 0.00 | 0.00 | 0.00 | 50 | 1239.7 |
| 20260504150201 | 66 | 110 | 1.7 | 2.6 | 0.00 | 0.00 | 0.00 | 50 | 1239.7 |
| 20260504141130 | 60 | 105 | 0.0 | 0.9 | 0.00 | 0.00 | 0.00 | 60 | 1239.7 |
| 20260504140627 | 59 | 116 | 0.9 | 0.9 | 0.00 | 0.00 | 0.00 | 62 | 1239.7 |
| 20260504140123 | 59 | 93 | 0.0 | 0.0 | 0.00 | 0.00 | 0.00 | 66 | 1239.7 |
| 20260504130551 | 50 | 84 | 0.0 | 0.0 | 0.00 | 0.00 | 0.00 | 89 | 1239.7 |
| 20260504110438 | 43 | 84 | 0.0 | 0.0 | 0.00 | 0.00 | 0.00 | 97 | 1239.7 |
| 20260504100355 | 43 | 94 | 0.0 | 0.0 | 0.00 | 0.00 | 0.00 | 96 | 1239.7 |
| 20260504081748 | 44 | 93 | 0.0 | 0.0 | 0.00 | 0.00 | 0.00 | 92 | 1239.7 |
| 20260504081244 | 44 | 93 | 0.0 | 0.0 | 0.00 | 0.00 | 0.00 | 92 | 1239.7 |
| 20260504080741 | 44 | 93 | 0.0 | 0.0 | 0.00 | 0.00 | 0.00 | 91 | 1239.7 |
| 20260504080238 | 44 | 100 | 0.0 | 0.0 | 0.00 | 0.00 | 0.00 | 91 | 1239.7 |
| 20260504070205 | 45 | 90 | 0.0 | 0.0 | 0.00 | 0.00 | 0.00 | 91 | 1239.7 |
| 20260504060126 | 46 | 87 | 0.0 | 0.0 | 0.00 | 0.00 | 0.00 | 86 | 1239.7 |
| 20260504050554 | 48 | 91 | 0.0 | 0.0 | 0.00 | 0.00 | 0.00 | 82 | 1239.7 |
| 20260504045548 | 48 | 91 | 0.0 | 0.0 | 0.00 | 0.00 | 0.00 | 82 | 1239.7 |
| 20260504045043 | 48 | 92 | 0.0 | 0.0 | 0.00 | 0.00 | 0.00 | 80 | 1239.7 |
| 20260504044540 | 49 | 91 | 0.0 | 0.0 | 0.00 | 0.00 | 0.00 | 78 | 1239.7 |
| 20260504044037 | 49 | 92 | 0.0 | 0.0 | 0.00 | 0.00 | 0.00 | 77 | 1239.7 |
| 20260504043534 | 49 | 91 | 0.0 | 0.0 | 0.00 | 0.00 | 0.00 | 79 | 1239.7 |
| 20260504043032 | 49 | 91 | 0.0 | 0.0 | 0.00 | 0.00 | 0.00 | 79 | 1239.7 |
| 20260504042529 | 49 | 91 | 0.0 | 0.0 | 0.00 | 0.00 | 0.00 | 78 | 1239.7 |
| 20260504042026 | 50 | 91 | 0.0 | 0.0 | 0.00 | 0.00 | 0.00 | 79 | 1239.7 |
| 20260504041521 | 50 | 91 | 0.0 | 0.0 | 0.00 | 0.00 | 0.00 | 78 | 1239.7 |
| 20260504041017 | 50 | 90 | 0.0 | 0.0 | 0.00 | 0.00 | 0.00 | 79 | 1239.7 |
| 20260504040515 | 50 | 90 | 0.0 | 0.0 | 0.00 | 0.00 | 0.00 | 78 | 1239.7 |
| 20260504040012 | 49 | 91 | 0.0 | 0.0 | 0.00 | 0.11 | 0.11 | 78 | 1239.7 |
| 20260504035509 | 49 | 90 | 0.0 | 0.0 | 0.00 | 0.11 | 0.11 | 77 | 1239.7 |
| 20260504035005 | 50 | 90 | 0.0 | 0.0 | 0.00 | 0.11 | 0.11 | 77 | 1239.7 |
| 20260504034503 | 50 | 90 | 0.0 | 0.0 | 0.00 | 0.11 | 0.11 | 75 | 1239.7 |
| 20260504034000 | 50 | 90 | 0.0 | 0.0 | 0.00 | 0.11 | 0.11 | 75 | 1239.7 |
| 20260504033457 | 50 | 90 | 0.0 | 0.0 | 0.00 | 0.11 | 0.11 | 74 | 1239.7 |
| 20260504032955 | 50 | 108 | 0.0 | 0.0 | 0.00 | 0.11 | 0.11 | 74 | 1239.7 |
| 20260504032451 | 51 | 108 | 0.0 | 0.0 | 0.00 | 0.11 | 0.11 | 74 | 1239.7 |
| 20260504031948 | 51 | 101 | 0.0 | 0.0 | 0.00 | 0.11 | 0.11 | 73 | 1239.7 |
| 20260504031445 | 51 | 92 | 0.0 | 0.0 | 0.00 | 0.11 | 0.11 | 72 | 1239.7 |
| 20260504030941 | 51 | 102 | 0.0 | 0.0 | 0.00 | 0.11 | 0.11 | 72 | 1239.7 |
| 20260504030439 | 52 | 99 | 0.0 | 0.0 | 0.00 | 0.11 | 0.11 | 70 | 1239.7 |
| 20260504025934 | 52 | 96 | 0.0 | 0.0 | 0.00 | 0.11 | 0.11 | 70 | 1239.7 |
| 20260504025431 | 52 | 95 | 0.0 | 0.0 | 0.00 | 0.11 | 0.11 | 69 | 1239.7 |
| 20260504024929 | 52 | 97 | 0.0 | 0.0 | 0.00 | 0.11 | 0.11 | 69 | 1239.7 |
| 20260504024426 | 52 | 93 | 0.0 | 0.0 | 0.00 | 0.11 | 0.11 | 69 | 1239.7 |
| 20260504023922 | 53 | 93 | 0.0 | 0.0 | 0.00 | 0.11 | 0.11 | 71 | 1239.7 |
| 20260504023419 | 53 | 94 | 0.0 | 0.0 | 0.00 | 0.11 | 0.11 | 70 | 1239.7 |
| 20260504022914 | 53 | 94 | 0.0 | 0.0 | 0.00 | 0.11 | 0.11 | 68 | 1239.7 |
| 20260504022411 | 53 | 95 | 0.0 | 0.0 | 0.00 | 0.11 | 0.11 | 66 | 1239.7 |
| 20260504021908 | 53 | 88 | 0.0 | 0.0 | 0.00 | 0.11 | 0.11 | 67 | 1239.7 |
| 20260504021405 | 54 | 88 | 0.0 | 0.0 | 0.00 | 0.11 | 0.11 | 67 | 1239.7 |
| 20260504020903 | 54 | 88 | 0.0 | 0.0 | 0.00 | 0.11 | 0.11 | 68 | 1239.7 |
| 20260504020359 | 54 | 88 | 0.0 | 0.0 | 0.00 | 0.11 | 0.11 | 67 | 1239.7 |
| 20260504015855 | 54 | 88 | 0.0 | 0.0 | 0.00 | 0.11 | 0.11 | 67 | 1239.7 |
| 20260504015351 | 55 | 88 | 0.0 | 0.0 | 0.00 | 0.11 | 0.11 | 66 | 1239.7 |
| 20260504014847 | 55 | 88 | 0.0 | 0.0 | 0.00 | 0.11 | 0.11 | 64 | 1239.7 |
| 20260504014343 | 55 | 88 | 0.0 | 0.0 | 0.00 | 0.11 | 0.11 | 65 | 1239.7 |
| 20260504013841 | 56 | 88 | 0.0 | 0.0 | 0.00 | 0.11 | 0.11 | 65 | 1239.7 |
| 20260504013339 | 56 | 89 | 0.0 | 0.0 | 0.00 | 0.11 | 0.11 | 63 | 1239.7 |
| 20260504012835 | 57 | 89 | 0.0 | 0.0 | 0.00 | 0.11 | 0.11 | 62 | 1239.7 |
| 20260504012333 | 57 | 89 | 0.0 | 0.0 | 0.00 | 0.11 | 0.11 | 61 | 1239.7 |
| 20260504011831 | 57 | 89 | 0.0 | 0.0 | 0.00 | 0.11 | 0.11 | 62 | 1239.7 |
| 20260504011327 | 58 | 89 | 0.0 | 0.0 | 0.00 | 0.11 | 0.11 | 60 | 1239.7 |
| 20260504010823 | 58 | 89 | 0.0 | 0.0 | 0.00 | 0.11 | 0.11 | 58 | 1239.7 |
| 20260504010319 | 59 | 88 | 0.0 | 0.0 | 0.00 | 0.11 | 0.11 | 58 | 1239.7 |
| 20260504005815 | 59 | 89 | 0.0 | 0.0 | 0.00 | 0.11 | 0.11 | 55 | 1239.7 |
| 20260504005312 | 60 | 89 | 0.0 | 0.0 | 0.00 | 0.11 | 0.11 | 54 | 1239.7 |
| 20260504004810 | 60 | 83 | 0.0 | 0.0 | 0.00 | 0.11 | 0.11 | 53 | 1239.7 |
| 20260504004308 | 62 | 83 | 0.0 | 0.0 | 0.00 | 0.11 | 0.11 | 53 | 1239.7 |
| 20260504003804 | 62 | 102 | 0.0 | 0.0 | 0.00 | 0.11 | 0.11 | 47 | 1239.7 |
| 20260504003301 | 63 | 87 | 0.0 | 0.0 | 0.00 | 0.11 | 0.11 | 46 | 1239.7 |
| 20260504002757 | 63 | 90 | 0.0 | 0.0 | 0.00 | 0.11 | 0.11 | 45 | 1239.7 |
| 20260504002254 | 64 | 88 | 0.0 | 0.0 | 0.00 | 0.11 | 0.11 | 46 | 1239.7 |
| 20260504001752 | 64 | 80 | 0.0 | 0.0 | 0.00 | 0.11 | 0.11 | 44 | 1239.7 |
| 20260504001249 | 64 | 112 | 0.0 | 0.0 | 0.00 | 0.11 | 0.11 | 44 | 1239.7 |
| 20260504000746 | 65 | 97 | 0.0 | 0.0 | 0.00 | 0.11 | 0.11 | 44 | 1239.7 |
| 20260504000242 | 65 | 104 | 0.0 | 0.0 | 0.00 | 0.11 | 0.11 | 44 | 1239.7 |
| 20260503235741 | 66 | 99 | 0.0 | 0.0 | 0.00 | 0.11 | 0.11 | 43 | 1239.7 |
| 20260503235237 | 66 | 102 | 0.0 | 0.0 | 0.00 | 0.11 | 0.11 | 42 | 1239.7 |
| 20260503234735 | 66 | 101 | 0.0 | 0.0 | 0.00 | 0.11 | 0.11 | 41 | 1239.7 |
| 20260503234233 | 67 | 113 | 0.0 | 0.0 | 0.00 | 0.11 | 0.11 | 40 | 1239.7 |
| 20260503233730 | 67 | 166 | 0.9 | 0.9 | 0.00 | 0.11 | 0.11 | 39 | 1239.7 |
| 20260503233225 | 67 | 86 | 0.0 | 0.0 | 0.00 | 0.11 | 0.11 | 39 | 1239.7 |
| 20260503232723 | 68 | 79 | 0.9 | 0.9 | 0.00 | 0.11 | 0.11 | 37 | 1239.7 |
| 20260503232220 | 68 | 142 | 0.9 | 0.9 | 0.00 | 0.11 | 0.11 | 38 | 1239.7 |
| 20260503231718 | 68 | 86 | 0.0 | 0.0 | 0.00 | 0.11 | 0.11 | 40 | 1239.7 |
| 20260503231214 | 68 | 99 | 0.0 | 0.0 | 0.00 | 0.11 | 0.11 | 39 | 1239.7 |
| 20260503230711 | 68 | 94 | 0.0 | 0.0 | 0.00 | 0.11 | 0.11 | 38 | 1239.7 |
| 20260503230208 | 69 | 68 | 0.0 | 0.0 | 0.00 | 0.11 | 0.11 | 37 | 1239.7 |
| 20260503225706 | 69 | 90 | 0.0 | 0.0 | 0.00 | 0.11 | 0.11 | 36 | 1239.7 |
| 20260503225205 | 69 | 136 | 0.0 | 0.0 | 0.00 | 0.11 | 0.11 | 37 | 1239.7 |
| 20260503224703 | 71 | 182 | 1.7 | 2.6 | 0.00 | 0.11 | 0.11 | 34 | 1239.7 |
| 20260503224200 | 72 | 130 | 0.0 | 0.0 | 0.00 | 0.11 | 0.11 | 33 | 1239.7 |
| 20260503223658 | 74 | 108 | 0.0 | 0.0 | 0.00 | 0.11 | 0.11 | 34 | 1239.7 |
| 20260503223155 | 73 | 97 | 0.0 | 0.0 | 0.00 | 0.11 | 0.11 | 34 | 1239.7 |
| 20260503222652 | 73 | 112 | 0.0 | 0.0 | 0.00 | 0.11 | 0.11 | 33 | 1239.7 |
| 20260503222149 | 74 | 140 | 0.0 | 0.0 | 0.00 | 0.11 | 0.11 | 32 | 1239.7 |
| 20260503221648 | 74 | 92 | 0.0 | 0.0 | 0.00 | 0.11 | 0.11 | 33 | 1239.7 |
| 20260503221145 | 74 | 146 | 0.9 | 0.9 | 0.00 | 0.11 | 0.11 | 33 | 1239.7 |
| 20260503220641 | 72 | 189 | 2.6 | 2.6 | 0.00 | 0.11 | 0.11 | 34 | 1239.7 |
| 20260503220138 | 71 | 107 | 0.0 | 0.0 | 0.00 | 0.11 | 0.11 | 33 | 1239.7 |
| 20260503215635 | 72 | 48 | 0.9 | 0.9 | 0.00 | 0.11 | 0.11 | 32 | 1239.7 |
| 20260503215132 | 73 | 34 | 1.7 | 1.7 | 0.00 | 0.11 | 0.11 | 31 | 1239.7 |
| 20260503214631 | 72 | 90 | 0.0 | 0.0 | 0.00 | 0.11 | 0.11 | 32 | 1239.7 |
| 20260503214126 | 72 | 47 | 0.0 | 0.9 | 0.00 | 0.11 | 0.11 | 34 | 1239.7 |
| 20260503213626 | 72 | 160 | 0.9 | 0.9 | 0.00 | 0.11 | 0.11 | 33 | 1239.7 |
| 20260503213122 | 74 | 137 | 1.7 | 1.7 | 0.00 | 0.11 | 0.11 | 31 | 1239.7 |
| 20260503212619 | 74 | 121 | 0.0 | 0.0 | 0.00 | 0.11 | 0.11 | 32 | 1239.7 |
| 20260503212117 | 73 | 142 | 0.0 | 0.0 | 0.00 | 0.11 | 0.11 | 32 | 1239.7 |
| 20260503211614 | 74 | 60 | 0.0 | 0.0 | 0.00 | 0.11 | 0.11 | 32 | 1239.7 |
| 20260503211109 | 73 | 110 | 0.0 | 0.0 | 0.00 | 0.11 | 0.11 | 32 | 1239.7 |
| 20260503210606 | 73 | 236 | 1.7 | 2.6 | 0.00 | 0.11 | 0.11 | 31 | 1239.7 |
| 20260503205558 | 72 | 78 | 1.7 | 1.7 | 0.00 | 0.11 | 0.11 | 32 | 1239.7 |
| 20260503205055 | 72 | 111 | 0.0 | 0.0 | 0.00 | 0.11 | 0.11 | 33 | 1239.7 |
| 20260503204552 | 73 | 224 | 1.7 | 1.7 | 0.00 | 0.11 | 0.11 | 32 | 1239.7 |
| 20260503204049 | 72 | 98 | 0.0 | 0.9 | 0.00 | 0.11 | 0.11 | 31 | 1239.7 |
| 20260503203546 | 71 | 345 | 2.6 | 3.5 | 0.00 | 0.11 | 0.11 | 32 | 1239.7 |
| 20260503203043 | 70 | 239 | 5.2 | 7.0 | 0.00 | 0.11 | 0.11 | 31 | 1239.7 |
| 20260503202541 | 70 | 322 | 3.5 | 5.2 | 0.00 | 0.11 | 0.11 | 33 | 1239.7 |
| 20260503202039 | 71 | 307 | 3.5 | 6.1 | 0.00 | 0.11 | 0.11 | 32 | 1239.7 |
| 20260503201537 | 72 | 47 | 3.5 | 3.5 | 0.00 | 0.11 | 0.11 | 32 | 1239.7 |
| 20260503201034 | 72 | 48 | 0.0 | 0.9 | 0.00 | 0.11 | 0.11 | 32 | 1239.7 |
| 20260503200530 | 72 | 179 | 1.7 | 1.7 | 0.00 | 0.11 | 0.11 | 33 | 1239.7 |
| 20260503200027 | 72 | 45 | 1.7 | 2.6 | 0.00 | 0.11 | 0.11 | 33 | 1239.7 |
| 20260503195524 | 71 | 74 | 0.9 | 1.7 | 0.00 | 0.11 | 0.11 | 35 | 1239.7 |
| 20260503195021 | 71 | 38 | 3.5 | 3.5 | 0.00 | 0.11 | 0.11 | 34 | 1239.7 |
| 20260503194518 | 71 | 78 | 1.7 | 2.6 | 0.00 | 0.11 | 0.11 | 37 | 1239.7 |
| 20260503194018 | 71 | 63 | 0.9 | 0.9 | 0.00 | 0.11 | 0.11 | 34 | 1239.7 |
| 20260503193515 | 70 | 268 | 2.6 | 2.6 | 0.00 | 0.11 | 0.11 | 34 | 1239.7 |
| 20260503193010 | 70 | 147 | 0.9 | 0.9 | 0.00 | 0.11 | 0.11 | 34 | 1239.7 |